Content
SEND FEEDBACK

Daily
Averages
Monthly
Summary
United Kingdom

ASHINGTON, ENGLAND


Home > Europe > United Kingdom > England
Elevation: 137 feet     Latitude: 55 18N     Longitude: 001 38W

WEATHER
 
SELECT A DAY
Number of Records: 288,418;   Date Range: 7/1/96 - 9/29/14
 
SHARE

PRINT THIS DATA

[ ← Previous Day ]
WEATHER ALMANAC - JULY 2, 2014
[ Next Day → ]
[ °C ]   °F
Weather ElementAverageHighLow
Temperature60.8 °F69.8 °F (10:20 am)46.4 °F (2:20 am)
Dewpoint49.7 °F55.4 °F (11:50 pm)44.6 °F (2:20 am)
Humidity69 %100 % (5:20 am)46 % (10:20 am)
Barometer30.06 in30.18 in (12:50 am)29.98 in (7:20 pm)
Wind Speed8.7 mph17.3 mph (7:20 pm)
Wind Gust26.5 mph (9:50 pm)
Weather ElementAverage
Visibility6.2 mi
Wind DirectionSSW (187.4 °)

Weather ElementTotal
Precipitation---
Heating Degree Days6.9 (Base 65)
Growing Degree Days8.1 (Base 50)
Averaged from 43 records on July 2, 2014
WEATHER CONDITIONS BREAKOUT
WIND DIRECTION BREAKOUT
WEATHER BY HOUR - JULY 2, 2014
[ °C ]   °F
Local TimeTemperatureDewpointHumidityBarometerVisibilityWind DirectionWind SpeedGust SpeedPrecipitationEventsConditions
12:50 AM50.0 °F46.4 °F87 %30.18 inSouth (170°)3.5 mphClear
1:20 AM50.0 °F48.2 °F94 %30.18 inSouth (170°)2.3 mphClear
1:50 AM50.0 °F46.4 °F87 %30.15 inCalmClear
2:20 AM46.4 °F44.6 °F93 %30.15 inSouth (170°)2.3 mphClear
2:50 AM50.0 °F46.4 °F87 %30.15 inVariable2.3 mphClear
3:20 AM48.2 °F46.4 °F93 %30.12 inVariable3.5 mphClear
3:50 AM50.0 °F46.4 °F87 %30.12 inCalmClear
4:50 AM46.4 °F44.6 °F93 %30.12 inCalmClear
5:20 AM46.4 °F46.4 °F100 %30.12 inSSW (210°)2.3 mphClear
5:50 AM48.2 °F46.4 °F93 %30.12 inSW (220°)3.5 mphClear
6:20 AM50.0 °F48.2 °F94 %30.12 inSSW (200°)2.3 mphClear
6:50 AM51.8 °F50.0 °F94 %30.12 inVariable3.5 mphClear
7:20 AM55.4 °F50.0 °F82 %30.12 inSouth (190°)3.5 mphClear
7:50 AM59.0 °F50.0 °F72 %30.12 inSSW (210°)4.6 mphClear
8:50 AM64.4 °F53.6 °F68 %30.09 inSouth (190°)4.6 mphClear
9:20 AM66.2 °F53.6 °F64 %30.09 inSSW (200°)4.6 mphClear
9:50 AM68.0 °F53.6 °F60 %30.09 inSSW (200°)4.6 mphClear
10:20 AM69.8 °F48.2 °F46 %30.09 in6.2 miWSW (250°)11.5 mphPartly Cloudy
10:50 AM69.8 °F50.0 °F49 %30.09 in6.2 miWSW (250°)12.7 mphPartly Cloudy
11:20 AM69.8 °F50.0 °F49 %30.06 in6.2 miWSW (250°)12.7 mphPartly Cloudy
12:20 PM69.8 °F50.0 °F49 %30.06 in6.2 miWSW (240°)11.5 mphPartly Cloudy
12:50 PM69.8 °F50.0 °F49 %30.06 in6.2 miWSW (240°)11.5 mphPartly Cloudy
1:20 PM69.8 °F50.0 °F49 %30.06 in6.2 miWSW (250°)12.7 mphPartly Cloudy
1:50 PM68.0 °F50.0 °F52 %30.06 in6.2 miSW (230°)12.7 mph24.2 mphPartly Cloudy
2:20 PM68.0 °F51.8 °F56 %30.04 in6.2 miSW (230°)12.7 mphPartly Cloudy
2:50 PM66.2 °F51.8 °F60 %30.04 in6.2 miSW (230°)11.5 mphPartly Cloudy
3:20 PM66.2 °F50.0 °F56 %30.04 in6.2 miSW (220°)11.5 mphPartly Cloudy
3:50 PM66.2 °F51.8 °F60 %30.04 in6.2 miSSW (210°)11.5 mphPartly Cloudy
4:20 PM66.2 °F50.0 °F56 %30.04 in6.2 miSSW (210°)12.7 mphPartly Cloudy
4:50 PM66.2 °F50.0 °F56 %30.01 in6.2 miSW (220°)11.5 mphPartly Cloudy
5:20 PM66.2 °F50.0 °F56 %30.01 in6.2 miSW (220°)12.7 mphPartly Cloudy
5:50 PM66.2 °F50.0 °F56 %30.01 in6.2 miSW (220°)11.5 mphPartly Cloudy
6:20 PM64.4 °F48.2 °F56 %30.01 in6.2 miSW (220°)13.8 mphPartly Cloudy
7:20 PM64.4 °F48.2 °F56 %29.98 in6.2 miSW (220°)17.3 mphPartly Cloudy
7:50 PM64.4 °F48.2 °F56 %29.98 in6.2 miSSW (210°)17.3 mphRainLight Rain
8:20 PM64.4 °F50.0 °F59 %29.98 in6.2 miSW (220°)13.8 mphRainLight Rain
8:50 PM64.4 °F50.0 °F59 %30.01 in6.2 miSW (230°)11.5 mphPartly Cloudy
9:20 PM62.6 °F51.8 °F68 %30.01 in6.2 miWSW (240°)13.8 mphPartly Cloudy
9:50 PM62.6 °F51.8 °F68 %29.98 in6.2 miSW (220°)13.8 mph26.5 mphPartly Cloudy
10:20 PM62.6 °F53.6 °F72 %29.98 in6.2 miSW (220°)11.5 mphPartly Cloudy
10:50 PM62.6 °F53.6 °F72 %29.98 in6.2 miSW (230°)11.5 mphScattered Clouds
11:20 PM62.6 °F53.6 °F72 %29.98 in6.2 miSW (230°)11.5 mphPartly Cloudy
11:50 PM60.8 °F55.4 °F82 %29.98 in6.2 miSW (220°)11.5 mphPartly Cloudy
Hourly data recorded from EGNT, located miles away from Ashington, England







STORIES FROM OUR PARTNERS